Weather reports worldwide

Advertisment
Saelices el Chico, Spain (8195): temperature & dewpoint: 22.05.2020 23:00:00 - 28.05.2020 23:00:00 (CEST)Saelices el Chico, Spain (8195): wind speed & gusts: 22.05.2020 23:00:00 - 28.05.2020 23:00:00 (CEST)Saelices el Chico, Spain (8195): wind direction: 22.05.2020 23:00:00 - 28.05.2020 23:00:00 (CEST)Saelices el Chico, Spain (8195): reduced air pressure: 22.05.2020 23:00:00 - 28.05.2020 23:00:00 (CEST)Saelices el Chico, Spain (8195): visibility: 22.05.2020 23:00:00 - 28.05.2020 23:00:00 (CEST)Saelices el Chico, Spain (8195): sunshine duration: 22.05.2020 23:00:00 - 28.05.2020 23:00:00 (CEST)Saelices el Chico, Spain (8195): precipitation: 22.05.2020 23:00:00 - 28.05.2020 23:00:00 (CEST)
Date & Time tt [°C] td [°C] ff [km/h] ff [kn] fx [km/h] fx [kn] dd ppp [hPa] vv [km] sd [min] rr [mm]
28.05.2020 23:00:00 - - - - - - - - - - -
28.05.2020 22:00:00 23,0 11,4 6 3 14 8 S 1015,9 20 15 0,0
28.05.2020 21:00:00 25,6 7,3 9 5 19 10 NNE 1015,0 20 36 0,0
28.05.2020 20:00:00 29,2 5,3 12 7 25 14 N 1014,0 20 57 -
28.05.2020 19:00:00 30,1 6,1 13 7 29 16 NNE 1014,0 20 60 0,0
28.05.2020 18:00:00 29,4 6,1 15 8 29 16 NE 1014,5 19 44 0,0
28.05.2020 17:00:00 30,1 6,1 14 8 32 17 NE 1014,4 2,8 52 0,0
28.05.2020 16:00:00 29,3 4,6 18 10 35 19 NE 1015,3 20 50 0,0
28.05.2020 15:00:00 29,9 5,1 15 8 29 16 NNE 1015,7 20 55 0,0
28.05.2020 14:00:00 28,8 6,2 17 9 28 15 NE 1016,5 1,5 60 -
28.05.2020 13:00:00 28,3 7,6 17 9 29 16 NNE 1017,1 20 60 0,0
28.05.2020 12:00:00 26,8 10,0 13 7 27 15 N 1017,9 20 60 0,0
28.05.2020 11:00:00 24,9 10,0 8 4 16 9 N 1018,8 20 60 0,0
28.05.2020 10:00:00 21,1 9,0 6 4 11 6 WSW 1020,2 20 60 0,0
28.05.2020 09:00:00 18,7 12,6 2 1 6 3 ENE 1020,7 20 60 0,0
28.05.2020 08:00:00 14,6 11,2 4 2 6 4 NNE 1022,0 20 50 -
28.05.2020 07:00:00 12,9 10,4 7 4 9 5 W 1022,2 20 0 0,0
28.05.2020 06:00:00 13,7 11,0 3 2 8 4 E 1021,8 20 0 0,0
28.05.2020 05:00:00 13,9 10,9 4 2 10 5 E 1021,9 20 0 0,0
28.05.2020 04:00:00 14,8 11,9 5 3 8 4 E 1021,6 20 0 0,0
28.05.2020 03:00:00 14,5 10,9 7 4 10 5 E 1021,7 20 0 0,0
28.05.2020 02:00:00 15,8 11,6 8 4 10 5 ESE 1021,3 20 0 -
28.05.2020 01:00:00 17,0 11,2 6 3 9 5 E 1021,2 20 0 0,0
28.05.2020 00:00:00 19,7 10,6 2 1 6 4 ENE 1020,5 20 0 0,0
27.05.2020 23:00:00 21,4 11,1 3 1 11 6 NNW 1019,8 20 0 0,0
27.05.2020 22:00:00 23,7 8,9 6 3 16 9 SW 1018,6 20 7 0,0
27.05.2020 21:00:00 26,1 9,4 8 4 17 9 SSW 1017,5 20 40 0,0
27.05.2020 20:00:00 28,1 9,8 11 6 21 11 SSW 1016,7 20 46 -
27.05.2020 19:00:00 29,3 10,4 10 5 20 11 SSW 1016,3 20 39 0,0
27.05.2020 18:00:00 28,7 10,4 13 7 32 17 S 1016,6 20 22 0,0
27.05.2020 17:00:00 28,9 8,0 13 7 32 17 ENE 1016,7 20 32 0,0
27.05.2020 16:00:00 29,4 8,4 11 6 40 22 ENE 1017,1 20 46 0,0
27.05.2020 15:00:00 29,9 8,9 13 7 33 18 E 1017,4 20 56 0,0
27.05.2020 14:00:00 28,4 10,2 14 7 33 18 ENE 1018,2 20 60 -
27.05.2020 13:00:00 27,5 11,6 10 5 25 14 NNE 1018,9 20 60 0,0
27.05.2020 12:00:00 25,5 13,7 4 2 11 6 NNE 1019,7 20 60 0,0
27.05.2020 11:00:00 22,1 13,8 4 2 10 5 E 1020,9 20 60 0,0
27.05.2020 10:00:00 18,5 13,2 2 1 10 5 WNW 1022,1 20 60 0,0
27.05.2020 09:00:00 16,3 13,3 6 3 10 6 WSW 1022,9 20 60 0,0
27.05.2020 08:00:00 13,8 12,2 4 2 8 4 WNW 1023,4 15 48 -
27.05.2020 07:00:00 12,5 10,9 5 3 8 4 WSW 1023,5 8 0 0,0
27.05.2020 06:00:00 13,2 11,6 3 1 7 4 SSE 1023,0 13 0 0,0
27.05.2020 05:00:00 13,5 11,7 5 3 10 5 WNW 1022,8 11 0 0,0
27.05.2020 04:00:00 14,4 12,4 4 2 6 4 E 1022,6 10 0 0,0
27.05.2020 03:00:00 15,0 12,6 3 2 7 4 WSW 1022,5 14 0 0,0
27.05.2020 02:00:00 16,0 13,3 3 2 7 4 NE 1022,4 20 0 -
27.05.2020 01:00:00 16,8 13,6 5 3 9 5 ESE 1022,3 20 0 0,0
27.05.2020 00:00:00 18,1 13,2 5 3 13 7 ESE 1021,7 20 0 0,0
26.05.2020 23:00:00 19,1 13,1 4 2 10 5 N 1021,3 20 0 0,0
26.05.2020 22:00:00 20,9 13,4 5 3 16 9 E 1020,3 20 15 0,0
26.05.2020 21:00:00 23,2 13,4 11 6 31 17 E 1019,6 20 60 0,0
26.05.2020 20:00:00 23,1 15,2 3 2 26 14 NW 1019,3 20 41 -
26.05.2020 19:00:00 17,9 13,2 16 8 51 28 SE 1021,3 20 8 4,2
26.05.2020 18:00:00 26,0 8,5 27 14 59 32 SE 1019,4 10 33 0,0
26.05.2020 17:00:00 28,3 8,5 7 4 18 10 NE 1018,3 20 43 0,0
26.05.2020 16:00:00 28,3 10,0 5 3 21 11 W 1018,8 20 54 0,0
26.05.2020 15:00:00 27,2 10,4 5 3 20 11 SSE 1019,8 20 56 0,0
26.05.2020 14:00:00 26,2 10,8 6 3 22 12 SE 1020,6 20 60 -
26.05.2020 13:00:00 24,1 11,4 10 6 21 12 ENE 1021,8 20 60 0,0
26.05.2020 12:00:00 21,9 10,6 12 6 25 13 ENE 1022,7 20 60 0,0
26.05.2020 11:00:00 20,2 10,6 10 5 18 10 ENE 1023,5 20 60 0,0
26.05.2020 10:00:00 17,8 9,9 10 6 27 15 ENE 1024,3 20 60 0,0
26.05.2020 09:00:00 15,9 9,0 8 5 30 16 NE 1024,7 20 60 0,0
26.05.2020 08:00:00 14,3 9,0 19 11 34 18 NE 1024,9 20 49 -
26.05.2020 07:00:00 13,7 9,2 16 9 37 20 NE 1024,8 20 0 0,0
26.05.2020 06:00:00 14,1 9,9 13 7 27 14 NE 1024,2 20 0 0,0
26.05.2020 05:00:00 15,0 10,8 16 9 36 20 NE 1023,7 20 0 0,0
26.05.2020 04:00:00 16,2 11,1 23 12 42 23 NE 1023,2 20 0 0,0
26.05.2020 03:00:00 17,1 11,3 4 2 26 14 SW 1022,8 20 0 0,0
26.05.2020 02:00:00 18,5 10,9 16 9 33 18 ENE 1022,3 20 0 -
26.05.2020 01:00:00 20,3 10,2 21 12 45 24 ENE 1021,6 20 0 0,0
26.05.2020 00:00:00 21,7 8,9 27 14 41 22 ENE 1021,1 20 0 0,0
25.05.2020 23:00:00 23,7 10,0 28 15 40 21 NE 1020,0 20 0 0,0
25.05.2020 22:00:00 22,6 10,4 11 6 17 9 N 1019,5 20 21 0,0
25.05.2020 21:00:00 26,5 8,9 11 6 24 13 N 1018,2 20 60 0,0
25.05.2020 20:00:00 28,1 7,3 15 8 26 14 NNE 1017,4 20 58 -
25.05.2020 19:00:00 29,0 7,6 14 8 29 16 N 1017,4 20 60 0,0
25.05.2020 18:00:00 29,7 8,1 14 7 34 18 N 1017,5 20 60 0,0
25.05.2020 17:00:00 30,2 8,5 16 8 32 17 NNE 1017,6 20 60 0,0
25.05.2020 16:00:00 29,6 8,7 13 7 27 15 ENE 1018,1 14 59 0,0
25.05.2020 15:00:00 29,2 9,3 13 7 28 15 NE 1018,7 20 54 0,0
25.05.2020 14:00:00 28,4 9,2 13 7 36 20 ENE 1019,2 20 60 -
25.05.2020 13:00:00 27,7 10,9 10 5 29 16 ENE 1019,7 20 60 0,0
25.05.2020 12:00:00 25,4 12,6 4 2 14 7 E 1020,5 20 60 0,0
25.05.2020 11:00:00 23,2 13,1 4 2 9 5 NNE 1021,4 20 60 0,0
25.05.2020 10:00:00 20,7 13,2 3 2 10 5 NNW 1022,2 20 60 0,0
25.05.2020 09:00:00 17,8 12,8 3 1 8 4 WNW 1023,0 20 60 0,0
25.05.2020 08:00:00 14,9 13,1 2 1 7 4 WSW 1023,7 20 18 -
25.05.2020 07:00:00 13,6 11,8 3 2 6 3 E 1023,8 20 0 0,0
25.05.2020 06:00:00 13,2 11,2 4 2 10 6 SSE 1023,9 20 0 0,0
25.05.2020 05:00:00 13,8 11,1 6 4 9 5 ESE 1023,6 20 0 0,0
25.05.2020 04:00:00 15,3 12,2 5 3 12 6 WNW 1023,3 20 0 0,0
25.05.2020 03:00:00 16,1 12,6 6 3 14 8 NNW 1022,9 20 0 0,0
25.05.2020 02:00:00 17,7 12,5 2 1 6 4 N 1022,8 20 0 -
25.05.2020 01:00:00 18,7 13,2 7 4 9 5 WNW 1022,7 20 0 0,0
25.05.2020 00:00:00 19,9 12,4 3 2 10 5 S 1022,4 20 0 0,0
24.05.2020 23:00:00 21,7 12,0 6 3 16 9 NNE 1021,8 20 0 0,0
24.05.2020 22:00:00 22,2 13,1 10 5 18 10 N 1021,2 20 19 0,0
24.05.2020 21:00:00 25,0 13,0 10 6 20 11 N 1020,2 20 44 0,0
24.05.2020 20:00:00 28,3 10,9 7 4 22 12 NNW 1019,2 20 58 -
24.05.2020 19:00:00 29,1 10,3 6 3 19 11 WNW 1019,1 20 60 0,0
24.05.2020 18:00:00 29,4 10,0 8 5 23 12 SW 1019,4 15 60 0,0
24.05.2020 17:00:00 29,2 10,8 10 5 18 10 NW 1019,8 20 60 0,0
24.05.2020 16:00:00 28,8 11,8 10 5 19 10 S 1020,3 20 60 0,0
24.05.2020 15:00:00 26,9 11,3 5 3 19 10 NE 1021,4 20 57 0,0
24.05.2020 14:00:00 25,8 11,6 5 3 18 10 NNE 1022,0 1,7 60 -
24.05.2020 13:00:00 23,7 10,8 7 4 26 14 E 1022,9 20 60 0,0
24.05.2020 12:00:00 21,5 9,7 10 5 19 10 ENE 1023,8 20 60 0,0
24.05.2020 11:00:00 19,3 8,9 8 4 19 10 ENE 1024,6 20 60 0,0
24.05.2020 10:00:00 17,2 8,7 10 5 23 12 ENE 1025,3 20 60 0,0
24.05.2020 09:00:00 15,0 8,3 15 8 22 12 NE 1025,9 20 60 0,0
24.05.2020 08:00:00 13,4 8,3 11 6 22 12 ENE 1026,1 20 42 -
24.05.2020 07:00:00 12,7 7,8 18 10 30 16 NE 1026,0 20 0 0,0
24.05.2020 06:00:00 13,2 8,3 9 5 29 16 E 1025,3 20 0 0,0
24.05.2020 05:00:00 14,2 8,7 6 3 30 16 SE 1025,1 20 0 0,0
24.05.2020 04:00:00 15,8 9,9 18 10 37 20 NE 1024,5 20 0 0,0
24.05.2020 03:00:00 17,7 10,5 25 14 37 20 ENE 1024,0 20 0 0,0
24.05.2020 02:00:00 18,6 11,4 22 12 37 20 ENE 1024,1 20 0 -
24.05.2020 01:00:00 19,5 12,0 27 15 44 24 ENE 1024,2 20 0 0,0
24.05.2020 00:00:00 20,0 12,2 16 8 29 16 E 1024,5 20 0 0,0
23.05.2020 23:00:00 20,0 10,6 10 5 12 7 N 1024,1 20 0 0,0
23.05.2020 22:00:00 21,2 11,2 11 6 15 8 NNE 1023,1 20 0 0,0
23.05.2020 21:00:00 24,3 11,9 9 5 16 9 N 1022,1 20 21 0,0
23.05.2020 20:00:00 26,5 9,3 9 5 23 12 N 1021,5 20 53 -
23.05.2020 19:00:00 28,0 9,3 10 5 23 13 N 1021,1 20 60 0,0
23.05.2020 18:00:00 28,3 9,0 10 6 22 12 NNW 1021,3 20 60 0,0
23.05.2020 17:00:00 28,1 8,9 8 5 28 15 NNE 1021,9 20 60 0,0
23.05.2020 16:00:00 28,3 9,6 7 4 24 13 WNW 1021,9 20 60 0,0
23.05.2020 15:00:00 27,1 8,9 5 3 24 13 NNE 1022,8 20 58 0,0
23.05.2020 14:00:00 25,5 10,2 8 5 21 12 NNE 1023,9 20 60 -
23.05.2020 13:00:00 24,2 11,2 4 2 18 10 WNW 1024,7 20 60 0,0
23.05.2020 12:00:00 22,5 12,4 4 2 18 10 E 1025,4 20 60 0,0
23.05.2020 11:00:00 20,0 13,5 8 5 17 9 NNE 1026,2 20 40 0,0
23.05.2020 10:00:00 16,4 13,2 7 4 17 9 N 1027,2 20 0 0,0
23.05.2020 09:00:00 15,1 13,2 5 3 13 7 N 1026,8 13 0 0,0
23.05.2020 08:00:00 14,5 12,8 4 2 8 4 N 1026,6 9 0 -
23.05.2020 07:00:00 13,8 12,0 4 2 10 5 E 1026,4 8 0 0,0
23.05.2020 06:00:00 14,6 12,6 3 2 10 5 SW 1026,1 11 0 0,0
23.05.2020 05:00:00 14,8 13,1 6 3 12 6 WNW 1026,3 16 0 0,0
23.05.2020 04:00:00 14,2 12,2 3 2 8 4 N 1026,4 16 0 0,0
23.05.2020 03:00:00 14,8 12,4 3 2 8 5 SSE 1026,3 13 0 0,0
23.05.2020 02:00:00 16,0 13,3 8 5 16 9 WNW 1026,0 20 0 -
23.05.2020 01:00:00 17,0 13,4 9 5 26 14 NW 1025,6 20 0 0,0
23.05.2020 00:00:00 18,3 13,6 9 5 25 14 NW 1024,7 20 0 0,0
22.05.2020 23:00:00 20,1 14,2 11 6 22 12 WNW 1023,4 20 0 0,0

tt = temperature
td = dewpoint
ff = wind speed
fx = gusts
dd = wind direction
ppp = reduced air pressure
vv = visibility
sd = sunshine duration
rr = precipitation

Next stations